User: anonymous   Login
Location: Fremont
(37.5480°N, 121.9880°W)
Time: 06:03:50
(UTC-07:00)
Language:

Cosmos 1844 Rocket - Orbit

View from above orbital plane
View from above orbital plane
View from above satellite
View from above satellite

Ground track
Ground track

The orbit data is extracted from the following two-line orbital elements,

1 17974U 87041B   15123.50393625  .00000240  00000-0  14284-3 0  9991
2 17974 071.0066 104.0590 0012604 145.7964 352.4843 14.17163022446783
Epoch (UTC): 03 May 2015 12:05:40
Eccentricity: 0.0012604
inclination: 71.0066°
perigee height: 826 km
apogee height: 844 km
right ascension of ascending node: 104.0590°
argument of perigee: 145.7964°
revolutions per day: 14.17163022
mean anomaly at epoch: 352.4843°
orbit number at epoch: 44678

The dashed part of the orbit path shows where the satellite is in the earth's shadow,  

DLR